Date,Time,Wetness (Wet Dry or Ice),Wind Speed (m/s),Temperature (C),Humidity (%),Pressure (mb),Radiation (W/m^2)
2019-08-04,05:15:00,DRY,2.55,12.55,12.5,776.00,0.6
2019-08-04,05:20:00,DRY,2.63,12.53,12.0,776.00,1.1
2019-08-04,05:25:00,DRY,2.45,12.65,12.0,776.00,0.9
2019-08-04,05:30:00,DRY,2.63,12.67,11.7,776.00,0.9
2019-08-04,05:35:00,DRY,2.90,12.50,12.0,776.00,1.1
2019-08-04,05:40:00,DRY,2.63,12.43,12.0,776.00,0.5
2019-08-04,05:45:00,DRY,3.25,12.35,12.0,776.00,0.9
2019-08-04,05:50:00,DRY,2.70,12.37,12.0,776.00,1.9
2019-08-04,05:55:00,DRY,2.15,12.35,12.0,776.00,1.6
2019-08-04,06:00:00,DRY,2.30,12.33,11.3,776.00,0.8
2019-08-04,06:05:00,DRY,2.90,12.35,11.0,776.00,1.7
2019-08-04,06:10:00,DRY,2.20,12.30,11.0,776.00,1.4
2019-08-04,06:15:00,DRY,2.25,12.15,11.0,776.00,1.5
2019-08-04,06:20:00,DRY,2.77,12.30,11.0,776.00,2.4
2019-08-04,06:25:00,DRY,2.80,12.30,11.0,776.00,3.3
2019-08-04,06:30:00,DRY,2.53,12.20,11.0,776.00,4.8
2019-08-04,06:35:00,DRY,2.35,12.20,11.5,776.00,7.2
2019-08-04,06:40:00,DRY,2.80,12.43,11.0,776.00,13.1
2019-08-04,06:45:00,DRY,3.15,12.55,11.0,776.00,32.4
2019-08-04,06:50:00,DRY,2.63,12.80,11.0,776.00,53.7
2019-08-04,06:55:00,DRY,3.35,12.85,11.5,776.00,75.7
2019-08-04,07:00:00,DRY,3.47,12.80,11.0,776.00,100.1
2019-08-04,07:05:00,DRY,2.25,12.85,11.0,776.00,120.2
2019-08-04,07:10:00,DRY,3.27,12.93,10.7,776.00,138.2
2019-08-04,07:15:00,DRY,3.15,12.95,10.0,776.00,158.2
2019-08-04,07:20:00,DRY,3.17,13.10,10.0,776.00,178.9
2019-08-04,07:25:00,DRY,2.85,13.30,10.0,776.00,199.7
2019-08-04,07:30:00,DRY,3.40,13.47,10.7,776.00,220.4
2019-08-04,07:35:00,DRY,4.40,13.65,10.5,776.00,240.9
2019-08-04,07:40:00,DRY,4.60,13.70,10.0,776.00,263.8
2019-08-04,07:45:00,DRY,3.85,13.75,10.0,776.00,285.6
2019-08-04,07:50:00,DRY,3.67,13.80,10.0,776.00,307.3
2019-08-04,07:55:00,DRY,4.30,13.70,10.0,776.00,329.0
2019-08-04,08:00:00,DRY,4.73,13.63,10.3,776.00,350.9
2019-08-04,08:05:00,DRY,3.65,13.50,11.5,776.00,372.7
2019-08-04,08:10:00,DRY,3.77,13.73,10.7,776.00,394.8
2019-08-04,08:15:00,DRY,5.00,13.95,11.0,776.00,415.6
2019-08-04,08:20:00,DRY,3.70,14.07,10.7,776.00,437.2
2019-08-04,08:25:00,DRY,4.45,14.20,10.0,776.00,458.4
2019-08-04,08:30:00,DRY,4.13,14.33,10.3,776.00,479.1
2019-08-04,08:35:00,DRY,3.10,14.45,9.5,776.00,500.6
2019-08-04,08:40:00,DRY,3.47,14.53,9.0,776.00,522.2
2019-08-04,08:45:00,DRY,3.25,14.45,9.0,776.00,541.9
2019-08-04,08:50:00,DRY,3.37,14.73,10.3,776.00,562.5
2019-08-04,08:55:00,DRY,3.55,15.05,9.5,776.00,582.5
2019-08-04,09:00:00,DRY,4.00,14.70,10.7,776.00,602.5
2019-08-04,09:05:00,DRY,4.60,14.75,10.0,776.00,622.4
2019-08-04,09:10:00,DRY,4.10,14.67,11.3,776.00,640.8
2019-08-04,09:15:00,DRY,3.50,14.85,12.0,776.00,659.5
2019-08-04,09:20:00,DRY,3.47,14.77,11.0,776.00,678.8
2019-08-04,09:25:00,DRY,4.50,14.70,10.0,776.00,695.9
2019-08-04,09:30:00,DRY,3.77,14.67,10.3,776.00,714.7
2019-08-04,09:35:00,DRY,4.05,14.80,10.5,776.00,732.5
2019-08-04,09:40:00,DRY,2.97,15.00,11.0,776.00,749.4
2019-08-04,09:45:00,DRY,3.60,15.05,11.5,776.00,767.2
2019-08-04,09:50:00,DRY,4.00,15.00,12.0,776.00,784.0
2019-08-04,09:55:00,DRY,4.20,14.80,13.5,776.00,799.8
2019-08-04,10:00:00,DRY,4.20,14.73,13.3,776.00,815.5
2019-08-04,10:05:00,DRY,3.35,15.05,19.5,776.00,831.8
2019-08-04,10:10:00,DRY,3.67,15.00,15.0,776.00,847.3
2019-08-04,10:15:00,DRY,3.15,14.95,17.0,776.00,862.8
2019-08-04,10:20:00,DRY,3.40,14.87,16.7,776.00,876.4
2019-08-04,10:25:00,DRY,3.55,15.00,19.0,776.00,891.7
2019-08-04,10:30:00,DRY,2.97,15.43,16.0,776.00,904.6
2019-08-04,10:35:00,DRY,4.10,15.20,14.5,776.50,917.1
2019-08-04,10:40:00,DRY,3.70,15.37,16.0,776.33,930.8
2019-08-04,10:45:00,DRY,3.55,15.55,14.0,776.50,944.5
2019-08-04,10:50:00,DRY,3.33,15.23,17.7,776.00,957.1
2019-08-04,10:55:00,DRY,4.10,15.60,18.5,776.50,968.8
2019-08-04,11:00:00,DRY,3.27,15.30,20.3,776.67,980.5
2019-08-04,11:05:00,DRY,3.30,15.40,22.0,776.00,991.5
2019-08-04,11:10:00,DRY,2.67,15.53,22.7,776.67,1001.5
2019-08-04,11:15:00,DRY,2.50,15.20,28.5,777.00,1014.4
2019-08-04,11:20:00,DRY,3.20,15.37,31.3,776.00,1020.7
2019-08-04,11:25:00,DRY,2.40,15.25,27.5,776.00,1031.5
2019-08-04,11:30:00,DRY,4.57,15.67,30.3,776.00,1041.5
2019-08-04,11:35:00,DRY,1.75,15.30,37.0,776.00,1048.5
2019-08-04,11:40:00,DRY,2.97,15.57,24.3,776.67,1058.5
2019-08-04,11:45:00,DRY,1.30,15.70,32.5,776.50,1066.5
2019-08-04,11:50:00,DRY,2.53,15.63,28.7,776.33,1072.8
2019-08-04,11:55:00,DRY,2.75,15.70,24.0,776.00,1080.3
2019-08-04,12:00:00,DRY,3.27,15.53,29.7,776.67,1087.8
2019-08-04,12:05:00,DRY,1.85,15.85,24.0,776.50,1092.5
2019-08-04,12:10:00,DRY,2.57,15.57,28.0,776.67,1098.8
2019-08-04,12:15:00,DRY,2.60,16.00,25.0,776.00,1104.8
2019-08-04,12:20:00,DRY,3.20,15.77,39.3,776.00,1107.8
2019-08-04,12:25:00,DRY,2.00,15.75,28.5,777.00,1113.7
2019-08-04,12:30:00,DRY,3.53,16.03,36.3,776.00,1116.0
2019-08-04,12:35:00,DRY,3.15,16.15,28.5,776.00,1120.2
2019-08-04,12:40:00,DRY,3.17,16.33,36.0,776.00,1121.8
2019-08-04,12:45:00,DRY,3.65,16.10,39.5,776.00,1125.0
2019-08-04,12:50:00,DRY,3.00,15.83,31.3,776.00,1126.6
2019-08-04,12:55:00,DRY,4.30,15.95,39.5,776.00,1125.2
2019-08-04,13:00:00,DRY,2.53,15.43,45.7,776.00,1131.5
2019-08-04,13:05:00,DRY,2.30,15.20,39.5,776.00,1130.1
2019-08-04,13:10:00,DRY,2.23,15.70,28.7,776.00,1132.4
2019-08-04,13:15:00,DRY,2.90,16.30,39.0,776.00,1133.2
2019-08-04,13:20:00,DRY,2.97,15.90,37.7,776.00,1131.4
2019-08-04,13:25:00,DRY,1.85,16.25,38.5,776.00,1130.0
2019-08-04,13:30:00,DRY,3.90,16.00,29.0,776.00,1130.4
2019-08-04,13:35:00,DRY,2.30,16.50,17.0,776.00,1129.5
2019-08-04,13:40:00,DRY,2.77,16.57,36.0,776.00,1128.3
2019-08-04,13:45:00,DRY,2.00,16.10,33.0,776.00,1124.4
2019-08-04,13:50:00,DRY,2.70,15.53,34.7,776.00,1122.9
2019-08-04,13:55:00,DRY,2.50,15.50,37.5,776.00,1121.4
2019-08-04,14:00:00,DRY,2.00,15.93,39.0,776.00,1116.7
2019-08-04,14:05:00,DRY,3.15,16.45,35.0,776.00,1114.3
2019-08-04,14:10:00,DRY,2.63,16.30,23.3,776.00,1110.4
2019-08-04,14:15:00,DRY,3.10,16.45,25.0,776.00,1104.6
2019-08-04,14:20:00,DRY,2.77,17.13,25.0,776.00,1103.1
2019-08-04,14:25:00,DRY,3.35,16.55,27.5,776.00,1095.2
2019-08-04,14:30:00,DRY,3.83,16.87,31.7,776.00,1089.8
2019-08-04,14:35:00,DRY,2.35,17.00,26.5,776.00,1083.8
2019-08-04,14:40:00,DRY,2.93,17.13,25.0,776.00,1076.9
2019-08-04,14:45:00,DRY,2.05,16.55,21.0,776.00,1071.3
2019-08-04,14:50:00,DRY,3.70,16.90,31.7,776.00,1060.5
2019-08-04,14:55:00,DRY,3.60,17.25,22.5,776.00,1050.5
2019-08-04,15:00:00,DRY,2.70,16.50,23.3,776.00,1042.4
2019-08-04,15:05:00,DRY,2.80,16.65,23.0,776.00,1031.5
2019-08-04,15:10:00,DRY,3.30,16.40,36.3,776.00,1021.5
2019-08-04,15:15:00,DRY,3.95,16.05,26.0,776.00,1013.5
2019-08-04,15:20:00,DRY,2.87,16.60,33.3,776.00,1000.1
2019-08-04,15:25:00,DRY,3.80,16.15,36.0,776.00,989.0
2019-08-04,15:30:00,DRY,4.20,16.27,35.7,776.00,976.9
2019-08-04,15:35:00,DRY,2.50,15.95,38.0,776.00,964.3
2019-08-04,15:40:00,DRY,3.10,15.53,36.3,776.00,951.4
2019-08-04,15:45:00,DRY,3.40,15.80,33.0,776.00,937.1
2019-08-04,15:50:00,DRY,1.53,15.33,28.0,776.00,926.4
2019-08-04,15:55:00,DRY,1.35,15.75,27.0,776.00,909.5
2019-08-04,16:00:00,DRY,3.07,15.83,32.3,776.00,897.7
2019-08-04,16:05:00,DRY,3.90,16.10,31.0,776.00,883.1
2019-08-04,16:10:00,DRY,4.10,16.27,34.3,776.00,867.9
2019-08-04,16:15:00,DRY,2.50,16.05,30.0,776.00,852.9
2019-08-04,16:20:00,DRY,3.57,15.90,30.7,776.00,836.9
2019-08-04,16:25:00,DRY,2.80,15.85,33.0,776.00,822.0
2019-08-04,16:30:00,DRY,3.97,16.17,24.7,776.00,805.5
2019-08-04,16:35:00,DRY,4.40,16.10,23.0,776.00,789.5
2019-08-04,16:40:00,DRY,3.60,16.50,19.0,776.00,772.6
2019-08-04,16:45:00,DRY,2.85,16.75,23.0,776.00,756.0
2019-08-04,16:50:00,DRY,4.43,16.47,18.0,776.00,739.3
2019-08-04,16:55:00,DRY,3.65,16.20,17.5,776.00,721.0
2019-08-04,17:00:00,DRY,4.83,16.07,20.3,776.00,703.4
2019-08-04,17:05:00,DRY,5.20,15.80,22.5,776.00,684.8
2019-08-04,17:10:00,DRY,3.37,15.70,24.7,776.00,666.9
2019-08-04,17:15:00,DRY,4.45,15.65,23.0,776.00,647.4
2019-08-04,17:20:00,DRY,5.37,15.43,24.3,776.00,628.3
2019-08-04,17:25:00,DRY,3.10,15.55,28.0,776.00,607.9
2019-08-04,17:30:00,DRY,3.70,15.00,26.3,776.00,588.7
2019-08-04,17:35:00,DRY,4.00,15.00,25.0,776.00,568.2
2019-08-04,17:40:00,DRY,3.60,14.53,28.0,776.00,547.9
2019-08-04,17:45:00,DRY,2.00,14.40,24.0,776.00,527.7
2019-08-04,17:50:00,DRY,2.57,14.33,23.7,776.00,506.8
2019-08-04,17:55:00,DRY,3.60,14.45,27.0,776.00,485.9
2019-08-04,18:00:00,DRY,4.00,14.90,25.3,776.00,465.5
2019-08-04,18:05:00,DRY,4.35,14.85,18.0,776.00,445.1
2019-08-04,18:10:00,DRY,3.50,14.77,14.7,776.00,423.3
2019-08-04,18:15:00,DRY,3.55,14.30,21.0,776.00,401.6
2019-08-04,18:20:00,DRY,3.90,14.03,22.0,776.00,379.7
2019-08-04,18:25:00,DRY,3.75,14.15,20.5,776.00,358.2
2019-08-04,18:30:00,DRY,4.03,14.23,20.0,776.00,336.6
2019-08-04,18:35:00,DRY,4.85,13.75,21.0,776.00,314.9
2019-08-04,18:40:00,DRY,4.27,13.60,20.3,776.00,293.4
2019-08-04,18:45:00,DRY,3.65,13.25,24.5,776.00,272.1
2019-08-04,18:50:00,DRY,4.30,13.43,18.7,776.00,250.9
2019-08-04,18:55:00,DRY,4.35,13.40,20.0,776.00,230.6
2019-08-04,19:00:00,DRY,3.40,13.20,23.7,776.00,210.0
2019-08-04,19:05:00,DRY,2.60,13.00,28.5,776.00,190.8
2019-08-04,19:10:00,DRY,4.33,12.83,28.3,776.00,171.0
2019-08-04,19:15:00,DRY,3.80,12.80,22.0,776.00,152.1
2019-08-04,19:20:00,DRY,3.77,12.53,25.3,776.00,133.7
2019-08-04,19:25:00,DRY,4.30,12.20,29.5,776.00,110.2
2019-08-04,19:30:00,DRY,4.97,12.13,25.7,776.00,85.5
2019-08-04,19:35:00,DRY,5.50,12.20,22.5,776.00,64.0
2019-08-04,19:40:00,DRY,4.50,11.87,28.0,776.00,45.5
2019-08-04,19:45:00,DRY,3.50,11.55,32.0,776.00,31.0
2019-08-04,19:50:00,DRY,5.80,11.37,30.7,776.00,20.9
2019-08-04,19:55:00,DRY,4.80,11.35,26.5,776.00,13.9
2019-08-04,20:00:00,DRY,6.70,11.43,24.7,776.00,10.9
2019-08-04,20:05:00,DRY,7.00,11.35,27.0,776.00,6.0
2019-08-04,20:10:00,DRY,4.90,11.30,26.0,776.00,3.3
2019-08-04,20:15:00,DRY,4.20,11.40,25.0,776.00,2.3
2019-08-04,20:20:00,DRY,4.57,11.17,28.7,776.00,1.4
2019-08-04,20:25:00,DRY,5.10,11.10,27.5,776.00,0.9
2019-08-04,20:30:00,DRY,5.20,10.97,27.7,776.00,1.4
2019-08-04,20:35:00,DRY,5.85,11.25,24.5,776.00,1.2
2019-08-04,20:40:00,DRY,4.83,11.20,27.3,776.00,0.8
2019-08-04,20:45:00,DRY,5.75,11.20,25.0,776.00,2.1
2019-08-04,20:50:00,DRY,5.93,11.27,25.3,776.00,1.1
2019-08-04,20:55:00,DRY,6.45,11.20,27.5,776.00,1.4
2019-08-04,21:00:00,DRY,7.17,11.13,30.7,776.33,1.3
2019-08-04,21:05:00,DRY,5.40,10.95,33.0,776.00,1.2
2019-08-04,21:10:00,DRY,6.60,10.73,36.3,776.33,1.6
2019-08-04,21:15:00,DRY,7.65,10.85,33.5,776.00,1.1
2019-08-04,21:20:00,DRY,8.00,10.83,35.3,777.00,0.9
2019-08-04,21:25:00,DRY,5.95,10.75,33.5,777.00,1.2
2019-08-04,21:30:00,DRY,7.17,10.70,34.0,777.00,1.3
2019-08-04,21:35:00,DRY,6.85,10.65,33.0,777.00,1.6
2019-08-04,21:40:00,DRY,6.60,10.73,33.3,777.00,1.2
2019-08-04,21:45:00,DRY,5.15,10.85,30.0,777.00,1.3
2019-08-04,21:50:00,DRY,5.50,10.87,29.3,777.00,1.3
2019-08-04,21:55:00,DRY,5.35,10.90,29.5,777.00,1.7
2019-08-04,22:00:00,DRY,5.87,10.87,29.0,776.67,1.3
2019-08-04,22:05:00,DRY,6.75,10.90,28.5,777.00,1.3
2019-08-04,22:10:00,DRY,5.50,10.87,29.3,777.00,1.3
2019-08-04,22:15:00,DRY,7.30,10.80,29.5,777.00,1.1
2019-08-04,22:20:00,DRY,5.43,10.87,29.7,777.00,1.1
2019-08-04,22:25:00,DRY,6.30,11.00,27.0,777.00,1.4
2019-08-04,22:30:00,DRY,4.77,11.03,26.7,777.00,1.0
2019-08-04,22:35:00,DRY,8.40,11.05,25.5,777.00,1.1
2019-08-04,22:40:00,DRY,6.73,11.10,25.0,777.00,1.0
2019-08-04,22:45:00,DRY,5.70,11.15,25.0,777.00,1.4
2019-08-04,22:50:00,DRY,4.97,11.00,25.0,777.00,1.2
2019-08-04,22:55:00,DRY,5.95,10.90,25.5,777.00,1.2
2019-08-04,23:00:00,DRY,7.73,10.70,27.7,777.00,1.4
2019-08-04,23:05:00,DRY,6.10,10.65,27.0,777.00,1.6
2019-08-04,23:10:00,DRY,5.20,10.73,26.3,777.00,1.2
2019-08-04,23:15:00,DRY,6.00,10.85,24.0,777.00,1.2
2019-08-04,23:20:00,DRY,5.93,10.90,24.7,777.00,1.0
2019-08-04,23:25:00,DRY,6.20,11.15,21.0,777.00,1.3
2019-08-04,23:30:00,DRY,5.07,11.23,21.0,777.00,1.3
2019-08-04,23:35:00,DRY,7.30,11.25,20.5,777.00,1.6
2019-08-04,23:40:00,DRY,4.20,11.30,20.0,777.00,1.2
2019-08-04,23:45:00,DRY,3.40,11.30,19.5,777.00,1.4
2019-08-04,23:50:00,DRY,6.67,11.37,20.0,777.00,1.2
2019-08-04,23:55:00,DRY,4.85,11.40,20.5,777.00,1.5
2019-08-05,00:00:00,DRY,4.00,11.30,21.3,777.00,1.1
2019-08-05,00:05:00,DRY,5.35,11.30,23.0,777.00,1.5
2019-08-05,00:10:00,DRY,5.00,11.47,21.7,777.00,1.3
2019-08-05,00:15:00,DRY,5.40,11.45,20.5,777.00,1.2
2019-08-05,00:20:00,DRY,6.23,11.50,20.3,777.00,1.6
2019-08-05,00:25:00,DRY,4.55,11.50,19.5,777.00,1.1
2019-08-05,00:30:00,DRY,5.23,11.37,20.0,776.67,1.0
2019-08-05,00:35:00,DRY,4.30,11.35,18.5,776.50,1.1
2019-08-05,00:40:00,DRY,5.77,11.50,18.3,776.67,1.2
2019-08-05,00:45:00,DRY,5.30,11.50,19.0,776.50,1.3
2019-08-05,00:50:00,DRY,4.77,11.27,21.0,776.00,1.4
2019-08-05,00:55:00,DRY,4.35,11.30,22.5,776.50,1.1
2019-08-05,01:00:00,DRY,3.50,11.10,24.3,776.33,1.4
2019-08-05,01:05:00,DRY,5.50,11.10,22.5,776.00,1.1
2019-08-05,01:10:00,DRY,5.30,11.33,20.7,776.00,1.1
2019-08-05,01:15:00,DRY,5.30,11.25,23.0,776.00,1.2
2019-08-05,01:20:00,DRY,5.47,11.27,22.3,776.00,1.7
2019-08-05,01:25:00,DRY,5.00,11.35,20.5,776.00,1.4
2019-08-05,01:30:00,DRY,5.33,11.40,21.0,776.00,1.3
2019-08-05,01:35:00,DRY,5.15,11.20,21.5,776.00,1.4
2019-08-05,01:40:00,DRY,4.67,11.20,22.3,776.00,1.1
2019-08-05,01:45:00,DRY,5.95,11.20,21.5,776.00,1.4
2019-08-05,01:50:00,DRY,5.07,11.30,22.3,776.00,1.1
2019-08-05,01:55:00,DRY,4.95,11.25,22.0,776.00,1.4
2019-08-05,02:00:00,DRY,5.43,11.20,21.0,776.00,1.4
2019-08-05,02:05:00,DRY,4.65,11.40,20.0,776.00,1.2
2019-08-05,02:10:00,DRY,5.37,11.37,20.3,776.00,1.1
2019-08-05,02:15:00,DRY,4.05,11.35,20.0,776.00,0.6
2019-08-05,02:20:00,DRY,5.10,11.27,21.3,776.00,1.4
2019-08-05,02:25:00,DRY,4.70,11.20,24.0,776.00,1.6
2019-08-05,02:30:00,DRY,5.47,11.17,24.3,776.00,1.4
2019-08-05,02:35:00,DRY,5.20,11.20,25.0,776.00,1.1
2019-08-05,02:40:00,DRY,4.50,11.23,24.3,776.00,1.1
2019-08-05,02:45:00,DRY,4.35,11.20,22.5,776.00,1.2
2019-08-05,02:50:00,DRY,5.27,11.40,21.0,776.00,1.3
2019-08-05,02:55:00,DRY,5.30,11.40,20.5,776.00,1.2
2019-08-05,03:00:00,DRY,4.53,11.23,22.3,776.00,1.3
2019-08-05,03:05:00,DRY,4.85,11.15,21.5,776.00,1.2
2019-08-05,03:10:00,DRY,5.03,11.30,20.7,776.00,1.4
2019-08-05,03:15:00,DRY,4.85,11.20,20.5,776.00,1.5
2019-08-05,03:20:00,DRY,5.00,11.30,21.3,776.00,2.2
2019-08-05,03:25:00,DRY,5.05,11.25,24.0,776.00,1.6
2019-08-05,03:30:00,DRY,4.53,11.23,23.0,776.00,1.2
2019-08-05,03:35:00,DRY,4.00,11.20,23.0,776.00,1.3
2019-08-05,03:40:00,DRY,5.37,11.20,23.7,776.00,1.2
2019-08-05,03:45:00,DRY,5.10,11.25,23.0,776.00,0.9
2019-08-05,03:50:00,DRY,4.83,11.20,23.3,776.00,1.4
2019-08-05,03:55:00,DRY,4.75,11.10,23.5,776.00,0.9
2019-08-05,04:00:00,DRY,5.00,11.13,22.7,776.00,1.2
2019-08-05,04:05:00,DRY,5.55,11.15,21.0,776.00,1.1
2019-08-05,04:10:00,DRY,3.53,11.33,20.0,776.00,1.4
2019-08-05,04:15:00,DRY,4.70,11.35,17.0,776.00,1.1
2019-08-05,04:20:00,DRY,4.57,11.27,18.3,776.00,1.5
2019-08-05,04:25:00,DRY,5.70,11.10,21.5,776.00,1.3
2019-08-05,04:30:00,DRY,5.50,11.07,23.0,776.00,1.3
2019-08-05,04:35:00,DRY,5.30,11.10,23.0,776.00,1.2
2019-08-05,04:40:00,DRY,4.53,11.10,22.7,776.00,1.3
2019-08-05,04:45:00,DRY,5.85,11.15,23.5,776.00,1.4
2019-08-05,04:50:00,DRY,4.90,11.13,23.3,776.00,1.6
2019-08-05,04:55:00,DRY,5.65,11.00,24.5,776.00,1.1
2019-08-05,05:00:00,DRY,5.03,10.97,25.7,776.00,1.7
2019-08-05,05:05:00,DRY,6.75,11.00,26.0,776.00,1.3
2019-08-05,05:10:00,DRY,4.47,11.00,25.0,776.00,1.1
2019-08-05,05:15:00,DRY,5.15,11.00,25.0,776.00,1.1
2019-08-05,05:20:00,DRY,5.17,11.03,25.7,776.00,1.2
2019-08-05,05:25:00,DRY,6.00,11.05,25.5,776.00,1.2
2019-08-05,05:30:00,DRY,5.83,11.00,26.7,776.00,1.1
2019-08-05,05:35:00,DRY,4.75,10.90,27.0,775.50,1.2
2019-08-05,05:40:00,DRY,5.97,10.90,27.3,775.67,1.1
2019-08-05,05:45:00,DRY,5.60,11.00,26.0,776.00,1.4
2019-08-05,05:50:00,DRY,6.43,10.93,26.7,776.00,1.2
2019-08-05,05:55:00,DRY,5.05,10.90,25.5,776.00,0.8
2019-08-05,06:00:00,DRY,5.53,10.90,26.0,776.00,1.5
2019-08-05,06:05:00,DRY,7.20,11.05,25.0,776.00,1.4
2019-08-05,06:10:00,DRY,4.03,11.13,25.7,776.00,1.3
2019-08-05,06:15:00,DRY,4.25,11.15,25.5,776.00,1.5
2019-08-05,06:20:00,DRY,5.70,11.17,25.3,776.00,2.4
2019-08-05,06:25:00,DRY,6.05,11.20,23.5,776.00,3.2
2019-08-05,06:30:00,DRY,5.50,11.30,24.3,776.00,5.2
2019-08-05,06:35:00,DRY,6.25,11.25,26.0,776.00,7.6
2019-08-05,06:40:00,DRY,5.47,11.47,24.7,776.00,13.5
2019-08-05,06:45:00,DRY,5.65,11.40,25.0,776.00,32.9
2019-08-05,06:50:00,DRY,4.37,11.57,24.3,776.00,51.5
2019-08-05,06:55:00,DRY,5.40,11.60,24.5,776.00,73.0
2019-08-05,07:00:00,DRY,4.50,11.80,23.7,776.00,97.4
2019-08-05,07:05:00,DRY,6.30,11.85,24.0,776.00,118.0
2019-08-05,07:10:00,DRY,5.57,11.93,24.0,776.00,136.2
2019-08-05,07:15:00,DRY,5.05,12.05,23.5,776.00,155.4
2019-08-05,07:20:00,DRY,5.27,12.10,23.7,776.00,175.8
2019-08-05,07:25:00,DRY,4.85,12.10,24.0,776.00,196.1
2019-08-05,07:30:00,DRY,4.93,12.13,24.0,776.00,217.6
2019-08-05,07:35:00,DRY,4.80,12.10,23.5,776.00,239.0
2019-08-05,07:40:00,DRY,4.47,12.07,21.0,776.00,261.3
2019-08-05,07:45:00,DRY,5.90,11.95,21.0,776.00,283.0
2019-08-05,07:50:00,DRY,5.17,12.13,19.3,776.00,304.9
2019-08-05,07:55:00,DRY,5.65,12.40,18.0,776.00,327.9
2019-08-05,08:00:00,DRY,5.27,12.50,18.3,776.00,348.3
2019-08-05,08:05:00,DRY,4.80,12.45,22.5,776.00,370.5
2019-08-05,08:10:00,DRY,5.70,12.53,19.3,776.00,391.5
2019-08-05,08:15:00,DRY,5.85,12.40,21.5,776.00,412.4
2019-08-05,08:20:00,DRY,4.80,12.50,20.3,776.00,435.1
2019-08-05,08:25:00,DRY,5.90,12.95,18.5,776.00,455.2
2019-08-05,08:30:00,DRY,4.97,13.10,18.3,776.00,477.1
2019-08-05,08:35:00,DRY,4.95,13.10,19.5,776.00,498.1
2019-08-05,08:40:00,DRY,5.87,12.87,22.0,776.00,518.6
2019-08-05,08:45:00,DRY,4.45,12.75,24.5,776.00,539.8
2019-08-05,08:50:00,DRY,5.00,12.93,20.3,776.00,559.8
2019-08-05,08:55:00,DRY,5.10,13.00,20.5,776.00,579.8
2019-08-05,09:00:00,DRY,4.60,13.17,19.3,776.00,599.6
2019-08-05,09:05:00,DRY,4.70,13.30,19.0,776.00,620.0
2019-08-05,09:10:00,DRY,5.20,13.50,20.3,776.00,638.8
2019-08-05,09:15:00,DRY,4.75,13.50,23.5,776.00,657.9
2019-08-05,09:20:00,DRY,5.23,13.63,21.3,776.00,677.4
2019-08-05,09:25:00,DRY,3.95,13.70,23.5,776.00,694.9
2019-08-05,09:30:00,DRY,3.67,13.83,22.0,776.00,714.1
2019-08-05,09:35:00,DRY,4.00,13.75,23.5,776.00,730.4
2019-08-05,09:40:00,DRY,4.10,14.33,19.3,776.00,747.5
2019-08-05,09:45:00,DRY,4.85,14.20,20.5,776.00,764.9
2019-08-05,09:50:00,DRY,5.87,14.27,18.3,776.00,781.5
2019-08-05,09:55:00,DRY,3.95,14.30,18.5,776.00,797.5
2019-08-05,10:00:00,DRY,4.60,13.70,27.0,776.00,813.6
2019-08-05,10:05:00,DRY,4.25,13.85,27.0,776.00,829.2
2019-08-05,10:10:00,DRY,5.50,13.93,26.7,776.00,845.5
2019-08-05,10:15:00,DRY,3.90,13.80,26.0,776.00,861.5
2019-08-05,10:20:00,DRY,5.13,14.27,23.0,776.00,875.6
2019-08-05,10:25:00,DRY,4.20,13.80,27.5,776.00,888.5
2019-08-05,10:30:00,DRY,5.30,13.87,25.0,776.00,903.7
2019-08-05,10:35:00,DRY,4.60,14.20,24.5,776.00,914.9
2019-08-05,10:40:00,DRY,4.60,14.10,23.7,776.00,929.7
2019-08-05,10:45:00,DRY,6.40,14.10,24.0,776.00,942.5
2019-08-05,10:50:00,DRY,4.80,14.20,26.0,776.00,955.1
2019-08-05,10:55:00,DRY,4.65,14.30,28.0,776.00,967.0
2019-08-05,11:00:00,DRY,3.43,14.00,30.3,776.00,978.8
2019-08-05,11:05:00,DRY,5.90,14.20,35.5,776.00,990.6
2019-08-05,11:10:00,DRY,3.97,13.70,36.0,776.00,999.9
2019-08-05,11:15:00,DRY,4.55,13.95,32.5,776.00,1010.6
2019-08-05,11:20:00,DRY,5.07,14.07,32.3,776.00,1021.7
2019-08-05,11:25:00,DRY,5.25,14.05,34.5,776.00,1029.9
2019-08-05,11:30:00,DRY,4.93,14.20,27.7,776.00,1038.8
2019-08-05,11:35:00,DRY,3.55,14.00,33.5,776.00,1048.3
2019-08-05,11:40:00,DRY,3.27,14.40,32.0,776.00,1056.8
2019-08-05,11:45:00,DRY,3.80,14.35,33.5,776.00,1065.8
2019-08-05,11:50:00,DRY,5.13,14.43,35.0,776.00,1071.3
2019-08-05,11:55:00,DRY,4.45,14.50,34.0,776.50,1080.0
2019-08-05,12:00:00,DRY,4.50,14.37,36.0,776.33,1086.8
2019-08-05,12:05:00,DRY,4.25,14.40,39.5,776.00,1089.8
2019-08-05,12:10:00,DRY,4.60,14.17,37.3,776.33,1096.4
2019-08-05,12:15:00,DRY,2.75,14.10,40.0,776.00,1101.8
2019-08-05,12:20:00,DRY,3.83,13.77,41.3,776.00,1104.4
2019-08-05,12:25:00,DRY,3.95,13.80,35.5,776.00,1112.2
2019-08-05,12:30:00,DRY,3.70,13.93,37.7,776.00,1114.5
2019-08-05,12:35:00,DRY,5.40,14.15,41.0,776.00,1117.9
2019-08-05,12:40:00,DRY,3.40,14.17,43.0,776.33,1119.7
2019-08-05,12:45:00,DRY,3.10,14.40,40.5,776.00,1124.7
2019-08-05,12:50:00,DRY,4.67,14.27,42.3,776.00,1125.4
2019-08-05,12:55:00,DRY,3.35,14.25,41.5,776.00,1130.0
2019-08-05,13:00:00,DRY,3.17,14.17,43.7,776.00,1129.5
2019-08-05,13:05:00,DRY,5.05,14.20,44.0,776.00,1126.7
2019-08-05,13:10:00,DRY,2.07,14.23,39.7,776.00,1128.8
2019-08-05,13:15:00,DRY,3.05,14.20,43.0,776.00,1131.6
2019-08-05,13:20:00,DRY,3.47,14.23,44.0,776.00,1128.5
2019-08-05,13:25:00,DRY,2.50,14.40,39.5,776.00,1129.6
2019-08-05,13:30:00,DRY,1.30,14.00,44.0,776.00,1130.0
2019-08-05,13:35:00,DRY,3.30,15.30,44.0,776.00,1131.4
2019-08-05,13:40:00,DRY,3.53,14.90,46.3,776.00,1128.8
2019-08-05,13:45:00,DRY,2.15,14.90,37.5,776.00,1127.3
2019-08-05,13:50:00,DRY,2.27,14.80,36.7,776.00,1122.4
2019-08-05,13:55:00,DRY,3.50,14.75,36.0,776.00,1120.0
2019-08-05,14:00:00,DRY,2.77,14.70,38.0,776.00,1115.8
2019-08-05,14:05:00,DRY,2.85,14.35,36.0,776.00,1113.8
2019-08-05,14:10:00,DRY,2.87,14.83,37.7,776.00,1108.7
2019-08-05,14:15:00,DRY,4.40,16.00,32.0,776.00,1103.8
2019-08-05,14:20:00,DRY,4.93,14.53,35.0,776.00,1101.1
2019-08-05,14:25:00,DRY,4.05,14.90,36.0,776.00,1092.3
2019-08-05,14:30:00,DRY,2.70,15.23,34.3,776.00,1089.9
2019-08-05,14:35:00,DRY,2.80,15.05,35.0,776.00,1081.8
2019-08-05,14:40:00,DRY,3.17,15.53,35.7,776.00,1074.9
2019-08-05,14:45:00,DRY,1.55,15.60,36.5,776.00,1067.2
2019-08-05,14:50:00,DRY,2.70,15.60,38.3,776.00,1058.2
2019-08-05,14:55:00,DRY,3.55,14.85,35.0,776.00,1050.2
2019-08-05,15:00:00,DRY,1.43,15.23,41.7,776.00,1043.0
2019-08-05,15:05:00,DRY,3.30,15.00,36.0,776.00,1031.8
2019-08-05,15:10:00,DRY,3.77,14.40,34.7,776.00,1023.9
2019-08-05,15:15:00,DRY,2.30,14.80,38.0,776.00,1011.2
2019-08-05,15:20:00,DRY,3.53,15.07,31.0,776.00,1000.8
2019-08-05,15:25:00,DRY,4.50,15.15,35.0,776.00,989.8
2019-08-05,15:30:00,DRY,2.13,15.10,31.0,776.00,980.2
2019-08-05,15:35:00,DRY,1.70,15.60,28.5,776.00,967.9
2019-08-05,15:40:00,DRY,3.30,15.40,31.3,776.00,954.0
2019-08-05,15:45:00,DRY,2.75,15.50,34.5,776.00,940.0
2019-08-05,15:50:00,DRY,2.83,15.37,27.7,776.00,927.9
2019-08-05,15:55:00,DRY,2.20,15.30,25.5,776.00,914.5
2019-08-05,16:00:00,DRY,2.70,15.50,31.7,776.00,898.0
2019-08-05,16:05:00,DRY,2.45,15.45,27.0,776.00,885.5
2019-08-05,16:10:00,DRY,2.30,15.27,31.0,776.00,870.4
2019-08-05,16:15:00,DRY,2.10,15.00,29.0,776.00,857.5
2019-08-05,16:20:00,DRY,2.17,15.17,29.3,776.00,838.1
2019-08-05,16:25:00,DRY,3.00,15.00,24.5,776.00,824.6
2019-08-05,16:30:00,DRY,2.33,15.30,26.0,776.00,808.2
2019-08-05,16:35:00,DRY,3.55,15.15,34.5,776.00,791.8
2019-08-05,16:40:00,DRY,1.70,15.40,29.7,776.00,774.0
2019-08-05,16:45:00,DRY,1.55,15.20,25.5,776.00,758.0
2019-08-05,16:50:00,DRY,2.23,15.07,29.7,776.00,740.0
2019-08-05,16:55:00,DRY,3.30,14.70,29.0,776.00,722.4
2019-08-05,17:00:00,DRY,2.87,14.67,30.3,776.00,703.2
2019-08-05,17:05:00,DRY,3.05,15.25,30.5,776.00,685.1
2019-08-05,17:10:00,DRY,2.97,14.50,29.7,776.00,667.2
2019-08-05,17:15:00,DRY,2.80,14.75,29.5,776.00,646.1
2019-08-05,17:20:00,DRY,2.00,14.53,34.7,776.00,629.1
2019-08-05,17:25:00,DRY,1.65,14.70,34.0,776.00,608.8
2019-08-05,17:30:00,DRY,2.80,14.50,33.0,776.00,589.6
2019-08-05,17:35:00,DRY,1.50,14.80,35.5,776.00,567.5
2019-08-05,17:40:00,DRY,2.97,14.70,33.7,776.00,547.6
2019-08-05,17:45:00,DRY,2.75,14.00,36.0,776.00,526.2
2019-08-05,17:50:00,DRY,3.10,13.77,38.7,776.00,505.4
2019-08-05,17:55:00,DRY,2.70,14.65,33.5,776.00,484.7
2019-08-05,18:00:00,DRY,3.60,13.90,32.7,776.00,464.5
2019-08-05,18:05:00,DRY,3.60,13.90,35.0,776.00,443.1
2019-08-05,18:10:00,DRY,3.77,13.40,35.0,776.00,421.6
2019-08-05,18:15:00,DRY,3.65,13.35,34.5,776.00,400.8
2019-08-05,18:20:00,DRY,3.37,13.53,35.0,776.00,377.9
2019-08-05,18:25:00,DRY,3.30,13.50,33.0,776.00,357.2
2019-08-05,18:30:00,DRY,4.00,13.23,35.7,776.00,335.6
2019-08-05,18:35:00,DRY,3.40,13.00,36.0,776.00,313.9
2019-08-05,18:40:00,DRY,2.97,13.07,35.0,776.00,292.6
2019-08-05,18:45:00,DRY,3.80,12.95,39.0,776.00,270.9
2019-08-05,18:50:00,DRY,3.03,12.80,36.3,776.00,250.4
2019-08-05,18:55:00,DRY,4.05,12.85,31.5,776.00,229.2
2019-08-05,19:00:00,DRY,3.77,12.50,35.0,776.00,208.4